ARIANE 44LP DEB, 25539

Orbit data source: Space-Track

ARIANE 44LP DEB, 25539 is space debris in HEO originally from a launch on Sun, 11 Dec 1988 UTC launched from the French Guiana (FRGUI). Debris objects in space refer to the collection of defunct objects orbiting the Earth. Examples of debris include non-operational satellites, rocket bodies, and fragments generated from explosions, collisions, or faulty payload assembly.

Loading next visibility...
Identifier
25539, 1988-109F
Orbit
HEO
Country
Flag of FRFR
Related business
Manufacturer
Unknown
Mission
Spacecraft
Bus & Motor
Unknown
Mass
Unknown
Launch date (UTC)
1988-12-11 (38 years ago)
Launch vehicle
Unknown
Launch site
French Guiana (FRGUI)
Object type
Payload
Rocket body
Debris
Shape & HBR
Unknown shape, 0.4 m
Radar Cross Section
Medium (>0.1 m² and <1 m²)

Expand to show TLE details & history
Last TLE update: 1 day ago

TLE from 1 day ago
0 ARIANE 44LP DEB
1 25539U 88109F   26256.52664593  .00001617  00000-0  41488-2 0  9993
2 25539   7.1098 271.8616 6810859 329.1635   4.3719  2.78794325263505
Epoch: 2026-09-13T12:38Z
TLE epoch observation values (Epoch: 2026-09-13T12:38:22.208Z)
Latitude
0.00053°
Longitude
89.71124°
Altitude
851.486 km
Speed
9.569 km/s
True Right ascension
18h 07m 17s
True Declination
0° 00' 02"
Sunlit
Object was in daylight at epoch
Visualization orbit readout
Latitude
Unknown
Longitude
Unknown
Altitude
Unknown
Speed
Unknown
Apparent Right ascension
Unknown
Apparent Declination
Unknown
Sunlit
N/A
Visualization observer readout
Local Sidereal Time
07:33:52
Azimuth
Unknown
Elevation
Unknown
Doppler factor
Unknown
Orbital elements
Apogee altitude
29,478.874 km
Perigee altitude
424.196 km
Semi-major axis
21,329.672 km
Eccentricity
0.68109
Inclination
7.1098°
RAAN
271.8616°
Arg. of periapsis
329.1635°
True anomaly
30.2876°
Mean anomaly
4.3719°
Eccentric anomaly
13.44586°
Mean motion
0.69673 °/min
Orbital period
516.7 mins
BSTAR
0.0041488
Loading maneuver chart data...
Computing Atmospheric mass density...
Loading historical data...
Loading historical data...
Loading historical data...
Loading historical data...
Loading historical data...
Loading historical data...
Loading historical data...

Documentation

Showing up to 5 results
|